Date String (YYYY-MM-DD hh:mm:ss) UTC,Instrument flags,absolute air pressure of the measurement (hPa),sample flow rate (lpm),inlet stack bypass flow (lpm),air temperature of the measurement (°C),ambient temperature measured by the external sensor (°C),aerosol sample conditioner tube jacket temperature (°C),OPC LED temperature (°C),internal box temperature (°C),relative humidity of the measurement (%),span deviation,mass concentration of particles derived from Lorenz-Mie calculation of OPC scattering (μg/m³),mass concentration of particles derived from Lorenz-Mie calculation of OPC scattering (μg/m³),mass concentration of particles derived from Lorenz-Mie calculation of OPC scattering (μg/m³)
DateTimeUTC,F1_M11,P_M11,Q1_M11,Q2_M11,T1_M11,T2_M11,T3_M11,T4_M11,T5_M11,U1_M11,ZSPAN_M11,X0_M11,X2_M11,X1_M11
2024-03-21 00:00:00,SystemResetWarning,0825.3,4.99,000.00,025.0,024.3,000.0,033.5,026.9,16.3,0004.8,0023.59,0009.43,0008.09
2024-03-21 00:01:00,SystemResetWarning,0825.3,5.01,000.00,025.0,024.3,000.0,033.5,026.9,16.3,0005.0,0023.90,0009.51,0008.15
2024-03-21 00:02:00,SystemResetWarning,0825.3,5.00,000.00,025.1,024.3,000.0,033.5,026.9,16.2,0004.8,0022.84,0009.55,0008.20
2024-03-21 00:03:00,SystemResetWarning,0825.2,4.99,000.00,025.1,024.3,000.0,033.5,026.9,16.2,0004.5,0022.29,0009.57,0008.24
2024-03-21 00:04:00,SystemResetWarning,0825.2,4.99,000.00,025.1,024.4,000.0,033.5,026.9,16.1,0004.5,0022.41,0009.63,0008.28
2024-03-21 00:05:00,SystemResetWarning,0825.2,5.00,000.00,025.1,024.4,000.0,033.5,026.9,16.2,0004.5,0022.96,0009.72,0008.33
2024-03-21 00:06:00,SystemResetWarning,0825.2,5.00,000.00,025.1,024.4,000.0,033.5,026.9,16.4,0004.0,0022.05,0009.74,0008.36
2024-03-21 00:07:00,SystemResetWarning,0825.2,5.02,000.00,025.1,024.4,000.0,033.5,026.9,16.2,0003.9,0021.62,0009.74,0008.39
2024-03-21 00:08:00,SystemResetWarning,0825.2,5.00,000.00,025.1,024.4,000.0,033.5,026.9,16.2,0003.4,0021.30,0009.76,0008.42
2024-03-21 00:09:00,SystemResetWarning,0825.2,4.99,000.00,025.1,024.4,000.0,033.5,026.9,16.2,0002.9,0021.30,0009.75,0008.42
2024-03-21 00:10:00,SystemResetWarning,0825.2,4.99,000.00,025.1,024.4,000.0,033.5,026.9,16.1,0002.9,0021.17,0009.76,0008.46
2024-03-21 00:11:00,SystemResetWarning,0825.2,5.01,000.00,025.1,024.5,000.0,033.6,027.0,16.2,0002.5,0020.93,0009.75,0008.47
2024-03-21 00:12:00,SystemResetWarning,0825.2,5.01,000.00,025.1,024.5,000.0,033.6,027.0,16.3,0002.1,0020.85,0009.75,0008.47
2024-03-21 00:13:00,SystemResetWarning,0825.2,4.98,000.00,025.1,024.5,000.0,033.6,027.0,16.4,0002.3,0021.62,0009.71,0008.46
2024-03-21 00:14:00,SystemResetWarning,0825.2,5.00,000.00,025.2,024.5,000.0,033.6,027.0,16.4,0003.1,0022.44,0009.69,0008.44
2024-03-21 00:15:00,SystemResetWarning,0825.2,5.01,000.00,025.2,024.5,000.0,033.6,027.0,16.7,0003.3,0021.74,0009.59,0008.40
2024-03-21 00:16:00,SystemResetWarning,0825.2,5.01,000.00,025.2,024.5,000.0,033.6,027.0,16.4,0003.7,0020.51,0009.53,0008.39
2024-03-21 00:17:00,SystemResetWarning,0825.2,4.99,000.00,025.2,024.5,000.0,033.6,027.0,16.3,0004.5,0020.90,0009.54,0008.41
2024-03-21 00:18:00,SystemResetWarning,0825.2,4.99,000.00,025.2,024.6,000.0,033.6,027.1,16.2,0004.3,0021.00,0009.56,0008.42
2024-03-21 00:19:00,SystemResetWarning,0825.2,4.99,000.00,025.2,024.6,000.0,033.6,027.1,16.1,0004.2,0021.32,0009.57,0008.41
2024-03-21 00:20:00,SystemResetWarning,0825.2,5.00,000.00,025.2,024.6,000.0,033.6,027.1,16.2,0004.6,0022.05,0009.57,0008.40
2024-03-21 00:21:00,SystemResetWarning,0825.2,5.00,000.00,025.2,024.6,000.0,033.7,027.1,16.3,0004.3,0022.38,0009.59,0008.39
2024-03-21 00:22:00,SystemResetWarning,0825.3,5.00,000.00,025.2,024.6,000.0,033.7,027.1,16.1,0005.2,0023.49,0009.62,0008.39
2024-03-21 00:23:00,SystemResetWarning,0825.3,5.00,000.00,025.3,024.6,000.0,033.7,027.1,16.2,0006.1,0022.91,0009.62,0008.40
2024-03-21 00:24:00,SystemResetWarning,0825.3,5.00,000.00,025.3,024.6,000.0,033.7,027.1,16.2,0005.3,0023.59,0009.66,0008.40
2024-03-21 00:25:00,SystemResetWarning,0825.2,5.00,000.00,025.3,024.6,000.0,033.7,027.1,16.1,0004.5,0023.15,0009.74,0008.43
2024-03-21 00:26:00,SystemResetWarning,0825.3,5.01,000.00,025.3,024.7,000.0,033.7,027.1,16.1,0004.4,0023.52,0009.81,0008.47
2024-03-21 00:27:00,SystemResetWarning,0825.3,4.99,000.00,025.3,024.7,000.0,033.7,027.1,16.2,0003.2,0024.13,0009.83,0008.48
2024-03-21 00:28:00,SystemResetWarning,0825.3,5.00,000.00,025.3,024.7,000.0,033.7,027.2,16.0,0002.5,0024.46,0009.83,0008.48
2024-03-21 00:29:00,SystemResetWarning,0825.3,5.00,000.00,025.3,024.7,000.0,033.7,027.2,16.0,0002.6,0025.38,0009.81,0008.49
2024-03-21 00:30:00,SystemResetWarning,0825.3,5.00,000.00,025.3,024.7,000.0,033.8,027.2,16.0,0003.0,0024.98,0009.79,0008.48
2024-03-21 00:31:00,SystemResetWarning,0825.3,5.01,000.00,025.4,024.7,000.0,033.8,027.2,16.1,0002.3,0024.28,0009.77,0008.49
2024-03-21 00:32:00,SystemResetWarning,0825.3,5.01,000.00,025.4,024.7,000.0,033.8,027.2,16.0,0002.5,0023.65,0009.76,0008.50
2024-03-21 00:33:00,SystemResetWarning,0825.3,4.99,000.00,025.4,024.7,000.0,033.8,027.2,15.9,0002.5,0022.19,0009.70,0008.51
2024-03-21 00:34:00,SystemResetWarning,0825.3,4.99,000.00,025.4,024.7,000.0,033.8,027.2,15.8,0002.0,0022.64,0009.72,0008.53
2024-03-21 00:35:00,SystemResetWarning,0825.3,5.00,000.00,025.4,024.7,000.0,033.8,027.2,16.0,0001.9,0021.76,0009.76,0008.55
2024-03-21 00:36:00,SystemResetWarning,0825.3,5.02,000.00,025.4,024.7,000.0,033.8,027.2,16.3,0001.8,0021.15,0009.68,0008.51
2024-03-21 00:37:00,SystemResetWarning,0825.3,4.99,000.00,025.4,024.7,000.0,033.8,027.2,16.3,0001.3,0021.71,0009.63,0008.47
2024-03-21 00:38:00,SystemResetWarning,0825.3,4.98,000.00,025.4,024.7,000.0,033.8,027.2,16.3,0001.4,0021.39,0009.56,0008.44
2024-03-21 00:39:00,SystemResetWarning,0825.3,5.00,000.00,025.4,024.7,000.0,033.8,027.2,16.4,0001.7,0020.76,0009.47,0008.39
2024-03-21 00:40:00,SystemResetWarning,0825.3,5.01,000.00,025.4,024.7,000.0,033.9,027.3,16.3,0001.7,0019.34,0009.45,0008.35
2024-03-21 00:41:00,SystemResetWarning,0825.3,5.01,000.00,025.4,024.7,000.0,033.9,027.3,16.3,0002.1,0020.19,0009.45,0008.32
2024-03-21 00:42:00,SystemResetWarning,0825.3,5.01,000.00,025.4,024.7,000.0,033.9,027.3,16.3,0003.3,0020.35,0009.40,0008.29
2024-03-21 00:43:00,SystemResetWarning,0825.3,4.99,000.00,025.4,024.7,000.0,033.9,027.3,16.3,0003.2,0020.35,0009.36,0008.25
2024-03-21 00:44:00,SystemResetWarning,0825.4,4.99,000.00,025.4,024.7,000.0,033.9,027.3,16.3,0004.3,0020.94,0009.35,0008.22
2024-03-21 00:45:00,SystemResetWarning,0825.4,5.02,000.00,025.5,024.8,000.0,033.9,027.3,16.2,0005.1,0020.21,0009.34,0008.17
2024-03-21 00:46:00,SystemResetWarning,0825.4,4.99,000.00,025.5,024.8,000.0,033.9,027.3,16.3,0004.1,0020.27,0009.30,0008.15
2024-03-21 00:47:00,SystemResetWarning,0825.3,5.00,000.00,025.5,024.8,000.0,033.9,027.3,16.3,0004.5,0020.48,0009.30,0008.16
2024-03-21 00:48:00,SystemResetWarning,0825.4,5.01,000.00,025.5,024.8,000.0,033.9,027.3,16.3,0005.9,0020.14,0009.33,0008.18
2024-03-21 00:49:00,SystemResetWarning,0825.4,5.00,000.00,025.5,024.8,000.0,033.9,027.3,16.3,0005.9,0020.47,0009.42,0008.17
2024-03-21 00:50:00,SystemResetWarning,0825.4,4.98,000.00,025.5,024.8,000.0,033.9,027.3,16.2,0005.5,0020.42,0009.50,0008.18
2024-03-21 00:51:00,SystemResetWarning,0825.4,5.01,000.00,025.5,024.8,000.0,033.9,027.3,16.2,0005.5,0020.16,0009.55,0008.19
2024-03-21 00:52:00,SystemResetWarning,0825.3,5.00,000.00,025.5,024.8,000.0,034.0,027.3,16.1,0005.1,0019.55,0009.55,0008.19
2024-03-21 00:53:00,SystemResetWarning,0825.3,4.99,000.00,025.5,024.8,000.0,034.0,027.3,16.2,0004.6,0019.19,0009.61,0008.20
2024-03-21 00:54:00,SystemResetWarning,0825.3,5.01,000.00,025.5,024.8,000.0,034.0,027.3,16.2,0004.7,0019.72,0009.61,0008.22
2024-03-21 00:55:00,SystemResetWarning,0825.3,5.01,000.00,025.5,024.8,000.0,034.0,027.3,16.2,0004.4,0019.03,0009.59,0008.20
2024-03-21 00:56:00,SystemResetWarning,0825.3,4.99,000.00,025.5,024.7,000.0,034.0,027.3,16.2,0004.2,0019.90,0009.58,0008.20
2024-03-21 00:57:00,SystemResetWarning,0825.4,4.99,000.00,025.5,024.7,000.0,034.0,027.3,16.3,0004.5,0019.95,0009.59,0008.18
2024-03-21 00:58:00,SystemResetWarning,0825.4,5.00,000.00,025.5,024.7,000.0,034.0,027.3,16.3,0004.5,0019.60,0009.61,0008.16
2024-03-21 00:59:00,SystemResetWarning,0825.4,5.02,000.00,025.5,024.7,000.0,034.0,027.3,16.3,0003.8,0019.84,0009.59,0008.14
